Date,TemperatureHighF,TemperatureAvgF,TemperatureLowF,DewpointHighF,DewpointAvgF,DewpointLowF,HumidityHigh,HumidityAvg,HumidityLow,PressureMaxIn,PressureMinIn,WindSpeedMaxMPH,WindSpeedAvgMPH,GustSpeedMaxMPH,PrecipitationSumIn
2013-10-1,69.4,58.0,49.2,58.0,52.2,47.0,93,82,60,29.99,29.87,4,0,7,0.00
2013-10-2,70.8,59.5,51.8,61.0,53.6,49.0,95,82,63,29.96,29.82,3,0,9,0.00
2013-10-3,65.9,55.8,48.1,52.0,46.9,43.0,85,73,50,30.08,29.96,3,0,6,0.00
2013-10-4,63.5,55.3,50.3,56.0,50.5,46.0,95,84,58,30.09,30.03,5,0,5,0.00
2013-10-5,57.9,53.6,50.0,53.0,49.9,46.0,94,87,78,30.12,30.05,3,0,7,0.00
2013-10-6,59.1,54.3,50.9,56.0,48.9,40.0,94,82,67,30.12,29.99,4,0,9,0.27
2013-10-7,70.7,60.3,49.1,62.0,55.8,46.0,95,85,66,29.99,29.55,10,2,17,0.74
2013-10-8,53.2,46.8,42.7,46.0,38.5,35.0,89,74,52,30.37,29.85,6,1,15,0.00
2013-10-9,59.6,48.5,39.6,42.0,38.1,35.0,84,69,46,30.46,30.34,5,1,6,0.00
2013-10-10,62.3,53.4,45.4,46.0,38.4,31.0,71,58,37,30.34,30.17,4,1,5,0.00
2013-10-11,67.6,58.1,50.5,47.0,40.8,33.0,75,54,37,30.17,30.11,4,1,5,0.00
2013-10-12,69.1,58.0,48.5,51.0,46.7,39.0,88,67,46,30.30,30.15,4,0,6,0.00
2013-10-13,66.4,53.2,43.3,50.0,45.6,42.0,95,77,49,30.39,30.29,4,1,7,0.00
2013-10-14,52.8,51.5,48.6,51.0,48.7,46.0,96,90,79,30.31,30.22,2,0,6,0.16
2013-10-15,60.0,53.4,47.5,55.0,50.6,47.0,96,90,78,30.27,30.09,3,0,6,0.00
2013-10-16,61.9,57.0,53.4,53.0,49.2,46.0,89,76,57,30.09,29.79,4,1,11,0.01
2013-10-17,60.8,54.4,49.3,52.0,49.2,44.0,95,83,62,29.81,29.65,4,1,14,0.22
2013-10-18,55.5,49.1,43.5,50.0,44.8,36.0,96,85,71,29.88,29.57,4,1,13,0.58
2013-10-19,56.3,48.2,40.2,45.0,41.0,37.0,92,77,61,29.91,29.64,5,1,12,0.06
2013-10-20,49.9,44.8,37.6,45.0,37.8,33.0,91,78,53,29.98,29.62,6,1,13,0.02
2013-10-21,56.6,46.9,35.7,41.0,37.8,33.0,93,73,55,30.06,29.88,4,1,10,0.00
2013-10-22,52.0,45.1,35.7,44.0,37.5,27.0,91,75,58,29.87,29.67,5,1,14,0.06
2013-10-23,45.3,38.5,33.1,33.0,31.0,29.0,90,75,57,29.75,29.62,4,0,9,0.00
2013-10-24,37.6,33.3,28.8,33.0,29.3,23.0,94,85,74,29.88,29.66,6,1,10,0.02
2013-10-25,37.9,33.4,30.9,30.0,27.6,25.0,89,80,64,30.13,29.89,8,1,12,0.01
2013-10-26,40.8,34.9,29.0,32.0,29.8,25.0,93,82,63,30.12,29.82,12,1,16,0.03
2013-10-27,40.9,37.5,32.5,35.0,30.5,27.0,85,76,64,30.02,29.75,5,1,13,0.00
2013-10-28,38.9,34.1,26.8,35.0,27.8,19.0,93,78,59,30.38,30.01,8,2,18,0.06
2013-10-29,36.6,28.6,22.3,25.0,20.9,16.0,88,74,44,30.48,30.36,4,1,7,0.00
2013-10-30,39.0,33.7,29.4,33.0,27.7,18.0,92,79,57,30.35,30.21,4,0,4,0.03
2013-10-31,56.0,46.4,33.8,54.0,43.9,32.0,95,91,80,30.25,29.62,10,2,16,0.30